This is the latest recevied weather packets stored in our database for station/object SQ3MKP-13. If no packets are shown the sender has not sent any weather packets the latest 10 day(s).
| Time | Temp. | Humidity | Pressure | Rain* | Wind** | Luminosity | Snow |
|---|---|---|---|---|---|---|---|
| 1777699222 | 13.33° C | 61% | 1014.6 hPa | - | - | 124 W/m² | - |
| 1777698921 | 12.78° C | 63% | 1014.6 hPa | - | - | 111 W/m² | - |
| 1777698620 | 12.22° C | 64% | 1014.6 hPa | - | - | 99 W/m² | - |
| 1777698319 | 11.67° C | 65% | 1014.6 hPa | - | - | 88 W/m² | - |
| 1777698018 | 11.11° C | 67% | 1014.6 hPa | - | - | 78 W/m² | - |
| 1777697717 | 11.11° C | 69% | 1014.5 hPa | - | - | 69 W/m² | - |
| 1777697416 | 11.11° C | 67% | 1014.6 hPa | - | - | 62 W/m² | - |
| 1777697115 | 11.11° C | 69% | 1014.6 hPa | - | - | 57 W/m² | - |
| 1777696815 | 11.67° C | 67% | 1014.6 hPa | - | - | 52 W/m² | - |
| 1777696514 | 10.56° C | 67% | 1014.6 hPa | - | - | 48 W/m² | - |
| 1777696213 | 10° C | 69% | 1014.5 hPa | - | - | 44 W/m² | - |
| 1777695912 | 9.44° C | 72% | 1014.5 hPa | - | - | 41 W/m² | - |
| 1777695611 | 8.89° C | 75% | 1014.5 hPa | - | - | 37 W/m² | - |
| 1777695310 | 8.33° C | 75% | 1014.5 hPa | - | - | 33 W/m² | - |
| 1777695009 | 7.78° C | 78% | 1014.5 hPa | - | - | 29 W/m² | - |
| 1777694708 | 8.33° C | 82% | 1014.4 hPa | - | - | 25 W/m² | - |
| 1777694407 | 7.22° C | 81% | 1014.5 hPa | - | - | 22 W/m² | - |
| 1777694106 | 6.67° C | 82% | 1014.4 hPa | - | - | 18 W/m² | - |
| 1777693806 | 6.11° C | 85% | 1014.4 hPa | - | - | 15 W/m² | - |
| 1777693505 | 6.11° C | 85% | 1014.4 hPa | - | - | 12 W/m² | - |
| 1777693204 | 6.67° C | 85% | 1014.5 hPa | - | - | 9 W/m² | - |
| 1777692903 | 6.67° C | 85% | 1014.5 hPa | - | - | 7 W/m² | - |
| 1777692602 | 6.67° C | 83% | 1014.5 hPa | - | - | 4 W/m² | - |
| 1777692301 | 6.67° C | 83% | 1014.5 hPa | - | - | 3 W/m² | - |
| 1777692000 | 6.67° C | 83% | 1014.6 hPa | - | - | 2 W/m² | - |
* Rain since midnight (hover to see other rain measurements)
** Current wind speed in m/s (hover to see current wind gust speed)